• In Netherlands
  • List of Countries
  • For 7 days
  • Water Temperature
  • Satellite Maps
  • Weather Map
  • Weather Widgets
  • user-avatar
    Login

    Hourly Weather Biskira

    Today, 20 February, Monday

    Time Temperature Precipitation Wind Pressure Humidity
    00:00 +15°C° 0 mm 2 mps 757 mmHg 61%
    01:00 +14°C° 0 mm 2 mps 757 mmHg 62%
    02:00 +14°C° 0 mm 2 mps 757 mmHg 63%
    03:00 +14°C° 0 mm 2 mps 757 mmHg 65%
    04:00 +13°C° 0 mm 2 mps 757 mmHg 65%
    05:00 +13°C° 0 mm 2 mps 757 mmHg 66%
    06:00 +13°C° 0 mm 2 mps 757 mmHg 67%
    07:00 +14°C° 0 mm 2 mps 757 mmHg 61%
    08:00 +14°C° 0 mm 3 mps 757 mmHg 55%
    09:00 +17°C° 0 mm 3 mps 757 mmHg 50%
    10:00 +18°C° 0 mm 4 mps 757 mmHg 45%
    11:00 +19°C° 0 mm 4 mps 757 mmHg 41%
    12:00 +20°C° 0 mm 4 mps 756 mmHg 36%
    13:00 +21°C° 0 mm 4 mps 756 mmHg 35%
    14:00 +21°C° 0 mm 4 mps 755 mmHg 33%
    15:00 +22°C° 0 mm 4 mps 755 mmHg 31%
    16:00 +21°C° 0 mm 4 mps 755 mmHg 34%
    17:00 +19°C° 0 mm 3 mps 755 mmHg 37%
    18:00 +18°C° 0 mm 3 mps 755 mmHg 39%
    19:00 +17°C° 0 mm 2 mps 756 mmHg 42%
    20:00 +17°C° 0 mm 2 mps 756 mmHg 44%
    21:00 +16°C° 0 mm 2 mps 756 mmHg 47%
    22:00 +16°C° 0 mm 2 mps 756 mmHg 48%
    23:00 +15°C° 0 mm 2 mps 756 mmHg 49%

    Tomorrow, 21 February, Tuesday

    Time Temperature Precipitation Wind Pressure Humidity
    00:00 +15°C° 0 mm 2 mps 756 mmHg 50%
    01:00 +15°C° 0 mm 2 mps 756 mmHg 52%
    02:00 +14°C° 0 mm 1 mps 756 mmHg 53%
    03:00 +14°C° 0 mm 1 mps 756 mmHg 55%
    04:00 +13°C° 0 mm 1 mps 756 mmHg 56%
    05:00 +13°C° 0 mm 1 mps 756 mmHg 57%
    06:00 +13°C° 0 mm 1 mps 756 mmHg 59%
    07:00 +15°C° 0 mm 1 mps 756 mmHg 53%
    08:00 +18°C° 0 mm 1 mps 757 mmHg 47%
    09:00 +20°C° 0 mm 1 mps 757 mmHg 41%
    10:00 +20°C° 0 mm 2 mps 757 mmHg 38%
    11:00 +21°C° 0 mm 2 mps 757 mmHg 35%
    12:00 +22°C° 0 mm 3 mps 756 mmHg 32%
    13:00 +22°C° 0 mm 3 mps 756 mmHg 32%
    14:00 +22°C° 0 mm 4 mps 756 mmHg 32%
    15:00 +22°C° 0 mm 4 mps 755 mmHg 31%
    16:00 +21°C° 0 mm 3 mps 755 mmHg 35%
    17:00 +20°C° 0 mm 3 mps 755 mmHg 38%
    18:00 +19°C° 0 mm 3 mps 756 mmHg 42%
    19:00 +18°C° 0 mm 2 mps 756 mmHg 44%
    20:00 +17°C° 0 mm 2 mps 756 mmHg 47%
    21:00 +17°C° 0 mm 2 mps 756 mmHg 49%
    22:00 +16°C° 0 mm 2 mps 757 mmHg 52%
    23:00 +16°C° 0 mm 2 mps 757 mmHg 54%

    Day after tomorrow, 22 February, Wednesday

    Time Temperature Precipitation Wind Pressure Humidity
    00:00 +15°C° 0 mm 2 mps 757 mmHg 56%
    01:00 +15°C° 0 mm 2 mps 757 mmHg 58%
    02:00 +14°C° 0 mm 2 mps 757 mmHg 59%
    03:00 +14°C° 0 mm 2 mps 756 mmHg 61%
    04:00 +14°C° 0 mm 2 mps 757 mmHg 62%
    05:00 +14°C° 0 mm 2 mps 757 mmHg 63%
    06:00 +13°C° 0 mm 2 mps 757 mmHg 64%
    07:00 +15°C° 0.1 mm 2 mps 757 mmHg 59%
    08:00 +16°C° 0.1 mm 2 mps 757 mmHg 55%
    09:00 +18°C° 0.1 mm 2 mps 757 mmHg 51%
    10:00 +19°C° 0 mm 3 mps 757 mmHg 46%
    11:00 +21°C° 0 mm 3 mps 756 mmHg 41%
    12:00 +22°C° 0 mm 3 mps 756 mmHg 37%
    13:00 +24°C° 0.1 mm 3 mps 756 mmHg 36%
    14:00 +24°C° 0.1 mm 2 mps 755 mmHg 35%
    15:00 +25°C° 0.1 mm 2 mps 755 mmHg 34%
    16:00 +24°C° 0.1 mm 2 mps 755 mmHg 37%
    17:00 +23°C° 0.1 mm 2 mps 755 mmHg 40%
    18:00 +21°C° 0.1 mm 2 mps 755 mmHg 43%
    19:00 +21°C° 0 mm 1 mps 755 mmHg 43%
    20:00 +21°C° 0 mm 1 mps 756 mmHg 44%
    21:00 +21°C° 0 mm 1 mps 756 mmHg 45%
    22:00 +20°C° 0 mm 1 mps 756 mmHg 45%
    23:00 +20°C° 0 mm 1 mps 755 mmHg 46%

    23 February, Thursday

    Time Temperature Precipitation Wind Pressure Humidity
    00:00 +18°C° 0 mm 2 mps 755 mmHg 47%
    01:00 +19°C° 0 mm 1 mps 755 mmHg 47%
    02:00 +19°C° 0 mm 1 mps 755 mmHg 47%
    03:00 +19°C° 0 mm 1 mps 754 mmHg 47%
    04:00 +19°C° 0 mm 1 mps 754 mmHg 47%
    05:00 +18°C° 0 mm 2 mps 754 mmHg 47%
    06:00 +17°C° 0 mm 2 mps 754 mmHg 47%
    07:00 +19°C° 0 mm 2 mps 754 mmHg 43%
    08:00 +21°C° 0 mm 3 mps 755 mmHg 38%
    09:00 +24°C° 0 mm 3 mps 755 mmHg 34%
    10:00 +25°C° 0 mm 4 mps 754 mmHg 32%
    11:00 +26°C° 0 mm 6 mps 753 mmHg 30%
    12:00 +27°C° 0 mm 7 mps 753 mmHg 29%
    13:00 +27°C° 0 mm 8 mps 752 mmHg 27%
    14:00 +28°C° 0 mm 9 mps 751 mmHg 25%
    15:00 +28°C° 0 mm 10 mps 750 mmHg 24%
    16:00 +27°C° 0 mm 9 mps 750 mmHg 25%
    17:00 +26°C° 0 mm 9 mps 750 mmHg 26%
    18:00 +24°C° 0 mm 9 mps 749 mmHg 27%
    19:00 +24°C° 0 mm 8 mps 749 mmHg 28%
    20:00 +23°C° 0 mm 8 mps 749 mmHg 29%
    21:00 +23°C° 0 mm 7 mps 749 mmHg 30%
    22:00 +22°C° 0 mm 7 mps 749 mmHg 30%
    23:00 +22°C° 0 mm 6 mps 749 mmHg 30%

    24 February, Friday

    Time Temperature Precipitation Wind Pressure Humidity
    00:00 +22°C° 0 mm 6 mps 748 mmHg 31%
    01:00 +21°C° 0 mm 5 mps 748 mmHg 31%
    02:00 +21°C° 0 mm 4 mps 748 mmHg 32%
    03:00 +20°C° 0 mm 3 mps 748 mmHg 33%
    04:00 +19°C° 0 mm 3 mps 748 mmHg 35%
    05:00 +18°C° 0 mm 2 mps 748 mmHg 36%
    06:00 +17°C° 0 mm 2 mps 748 mmHg 38%
    07:00 +19°C° 0 mm 2 mps 748 mmHg 34%
    08:00 +21°C° 0 mm 2 mps 749 mmHg 31%
    09:00 +23°C° 0 mm 2 mps 749 mmHg 27%
    10:00 +24°C° 0 mm 2 mps 749 mmHg 26%
    11:00 +25°C° 0 mm 3 mps 749 mmHg 24%
    12:00 +26°C° 0 mm 3 mps 749 mmHg 23%
    13:00 +26°C° 0 mm 3 mps 748 mmHg 23%
    14:00 +26°C° 0 mm 3 mps 748 mmHg 22%
    15:00 +26°C° 0 mm 3 mps 748 mmHg 22%
    16:00 +25°C° 0 mm 3 mps 748 mmHg 26%
    17:00 +24°C° 0 mm 3 mps 749 mmHg 30%
    18:00 +23°C° 0 mm 2 mps 749 mmHg 34%
    19:00 +21°C° 0.1 mm 3 mps 750 mmHg 37%
    20:00 +20°C° 0.1 mm 3 mps 750 mmHg 40%
    21:00 +20°C° 0.1 mm 3 mps 751 mmHg 43%
    22:00 +19°C° 0 mm 4 mps 751 mmHg 46%
    23:00 +19°C° 0 mm 4 mps 751 mmHg 49%

    25 February, Saturday

    Time Temperature Precipitation Wind Pressure Humidity
    00:00 +18°C° 0 mm 4 mps 751 mmHg 52%
    01:00 +17°C° 0 mm 5 mps 752 mmHg 56%
    02:00 +16°C° 0 mm 5 mps 752 mmHg 60%
    03:00 +16°C° 0 mm 5 mps 752 mmHg 64%
    04:00 +15°C° 0 mm 5 mps 752 mmHg 64%
    05:00 +15°C° 0 mm 5 mps 752 mmHg 65%
    06:00 +14°C° 0 mm 5 mps 753 mmHg 66%
    07:00 +16°C° 0 mm 5 mps 753 mmHg 60%
    08:00 +17°C° 0 mm 5 mps 754 mmHg 54%
    09:00 +19°C° 0 mm 5 mps 754 mmHg 48%
    10:00 +20°C° 0 mm 4 mps 754 mmHg 43%
    11:00 +21°C° 0 mm 4 mps 754 mmHg 39%
    12:00 +24°C° 0 mm 3 mps 754 mmHg 35%
    13:00 +24°C° 0.2 mm 3 mps 754 mmHg 34%
    14:00 +24°C° 0.2 mm 3 mps 753 mmHg 33%
    15:00 +24°C° 0.2 mm 2 mps 753 mmHg 32%
    16:00 +23°C° 0.2 mm 2 mps 753 mmHg 35%
    17:00 +21°C° 0.2 mm 3 mps 754 mmHg 38%
    18:00 +20°C° 0.2 mm 3 mps 754 mmHg 41%
    19:00 +19°C° 0.1 mm 3 mps 755 mmHg 44%
    20:00 +19°C° 0.1 mm 3 mps 755 mmHg 47%
    21:00 +18°C° 0.1 mm 4 mps 756 mmHg 49%
    22:00 +17°C° 0 mm 3 mps 756 mmHg 50%
    23:00 +17°C° 0 mm 3 mps 756 mmHg 52%
    Show more